Location: Zihuatanejo
(17.6330°N, 101.5500°W)
Time: 02:14:30
(UTC-05:00)

Daily predictions for brighter satellites

Satellite Brightness Start Highest point End
(mag) Time Altitude Azimuth Time Altitude Azimuth Time Altitude Azimuth
Cosmos 2278 Rocket 4.2 03:46:43 23° NNE 03:46:43 23° NNE 03:48:47 10° NNE
Resurs 1-4 Rocket 4.2 03:50:36 10° NNE 03:52:51 23° NE 03:52:51 23° NE
H-2A R/B 3.9 04:21:38 50° WNW 04:24:46 86° SSW 05:36:31 10° SE
ATLAS 2A CENTAUR R/B 4.1 04:27:20 31° NW 04:31:36 66° NNE 05:21:58 10° ESE
Cosmos 2100 Rocket 4.4 04:34:23 57° E 04:34:36 57° E 04:40:42 10° NNE
Atlas Centaur 2 3.2 04:49:33 54° S 04:50:33 57° SSE 04:58:51 10° ENE
CZ-2D R/B 3.1 04:49:19 10° N 04:53:01 38° NNW 04:53:01 38° NNW
Cosmos 2061 Rocket 3.8 05:04:21 70° SSW 05:05:04 80° W 05:11:25 10° N
Cosmos 1447 Rocket 4.3 04:59:24 10° N 05:05:32 82° W 05:06:22 67° SSW
Sakura Rocket 3.6 05:06:14 72° SSE 05:06:14 72° SSE 05:12:37 10° ESE
Hubble Space Telescope 3.1 05:10:01 15° SE 05:10:01 15° SE 05:10:51 10° SE
GPS 2-15 Rocket1 3.3 05:09:20 68° NNE 05:09:20 68° NNE 05:13:56 10° E
Cosmos 2084 4.3 05:11:26 40° E 05:11:26 40° E 05:14:40 10° NE
MAQSAT/ARIANE V 4.5 05:13:10 29° S 05:13:10 29° S 05:16:32 10° SE
USA 234 3.1 05:05:28 10° SE 05:12:00 87° SW 05:18:32 10° NW
Cosmos 2369 Rocket 4.3 05:10:04 10° SSE 05:14:21 22° ESE 05:18:37 10° NE
Okean O Rocket 2.0 05:10:37 10° N 05:14:06 54° NNW 05:14:06 54° NNW
SL-16 R/B 2.5 05:18:07 54° WSW 05:18:35 55° WSW 05:24:40 10° NNW
Cosmos 614 Rocket 3.8 05:13:43 10° NNW 05:18:50 84° W 05:19:43 61° S
Cosmos 1626 Rocket 3.9 05:21:56 10° N 05:26:17 65° E 05:28:18 31° SSE
PAYLOAD B 4.2 05:23:01 10° N 05:28:34 66° WNW 05:30:01 48° SW
CZ-2C R/B 4.0 05:27:33 18° SSE 05:30:58 72° ENE 05:35:42 10° N
ASC 2 Rocket 4.2 05:31:56 22° NW 05:34:08 36° N 05:37:54 10° ENE
Cosmos 2016 Rocket 4.0 05:32:32 39° SSW 05:34:48 61° W 05:41:01 10° N
Resurs 1-4 Rocket 4.0 05:31:47 10° NW 05:33:56 15° WNW 05:33:56 15° WNW
ATLAS 5 CENTAUR R/B 3.0 05:32:28 10° NNW 05:38:41 60° ENE 05:45:06 10° SE
ASTRO F (AKARI) 4.3 05:38:31 76° SE 05:38:42 82° E 05:42:06 10° N
CENTAUR R/B 3.2 05:32:43 10° NW 05:40:40 54° WSW 05:48:35 10° S
CZ-4B DEB 4.3 05:35:48 10° N 05:41:15 58° WNW 05:43:19 36° SW
Thor Agena Rocket 4.0 05:36:18 10° SSE 05:41:28 64° ENE 05:46:33 10° N
SL-8 R/B 3.6 05:45:01 43° SW 05:46:32 79° NW 05:51:17 10° NE
Maqsat-H 3.1 05:46:37 22° S 05:47:03 23° S 05:51:57 10° ESE
Cosmos 1606 Rocket 3.9 05:44:11 19° S 05:47:16 67° E 05:51:39 10° NNE
Cosmos 1864 Rocket 4.4 05:43:29 20° S 05:48:04 78° W 05:54:26 10° N
Maqsat-B 4.1 05:48:23 21° S 05:48:50 22° S 05:53:32 10° ESE
Cosmos 1725 Rocket 3.9 05:44:58 21° SSW 05:49:24 74° W 05:55:40 10° N
ADEOS Rocket 4.0 05:44:19 10° NNE 05:49:45 43° ESE 05:55:37 10° S
Cosmos 1975 4.5 05:53:06 19° WNW 05:53:06 19° WNW 05:55:10 10° NNW
Cosmos 1743 2.6 05:51:08 30° S 05:52:55 89° W 05:56:45 10° N
CZ-4B R/B 3.7 05:49:10 10° N 05:53:17 37° WNW 05:54:08 33° WSW
USA 215 4.3 05:49:14 10° ENE 05:55:11 37° SE 06:01:07 10° S
CZ-4B R/B 4.0 05:51:30 10° N 05:56:33 34° WNW 05:58:39 26° WSW
GPS 2-17 Rocket1 2.8 05:55:20 36° WSW 05:57:03 79° SSE 06:01:31 10° E
Palapa B4 Rocket 3.4 05:55:10 28° W 05:57:26 76° N 06:03:34 10° E
Cosmos 1346 Rocket 2.8 05:53:37 10° N 05:57:37 82° E 06:01:35 10° S
ADEOS II 2.4 05:52:27 10° NNE 05:57:41 67° ESE 06:02:53 10° S
Ariane H10-3 3.6 05:57:28 13° S 05:58:25 14° SSE 06:01:36 10° SE
Cosmos 2082 Rocket 2.4 05:53:00 10° NNW 05:58:42 74° ENE 06:04:21 10° SSE
Cosmos 1500 4.0 05:58:42 32° W 05:58:58 32° W 06:02:28 10° NNW
Meteor PRIRODA 3.5 06:03:47 10° NNE 06:07:26 89° ENE 06:10:29 14° S
Delta 2 Rocket 3.8 06:03:28 10° WNW 06:10:01 70° SSW 06:15:58 10° ESE
Cosmos 1515 3.6 06:06:18 10° NNW 06:10:04 61° W 06:13:51 10° S
BREEZE M DEB (TANK) 4.4 06:04:33 10° NNW 06:11:05 41° NE 06:13:52 10° ESE
Delta 198 3.7 06:09:43 24° SSW 06:11:20 40° SSE 06:14:44 10° E
OTV 4 0.8 06:13:05 30° WSW 06:13:52 37° SW 06:16:37 10° SSE
CZ-3 R/B 3.9 06:02:26 12° SW 06:17:37 29° S 06:23:39 10° ESE
GPS 2-14 Rocket1 3.6 06:15:47 20° SW 06:17:56 35° SSE 06:21:28 10° E
Tiangong 1 2.8 06:20:18 16° SSW 06:20:18 16° SSW 06:21:37 10° S
CZ-4B R/B 3.7 06:21:58 10° NNE 06:25:37 80° ESE 06:29:20 10° S
Cosmos 1066 Rocket 4.1 06:20:22 10° NNW 06:25:44 69° W 06:31:02 10° S
Meteor 2-9 Rocket 4.2 06:26:55 10° S 06:32:28 83° W 06:38:10 10° N
BREEZE M DEB (TANK) 3.0 06:25:56 10° NW 06:33:57 47° WSW 06:36:53 10° SSE
Cosmos 1726 Rocket 4.4 06:31:09 10° SSW 06:35:06 32° W 06:39:03 10° NNW
Cosmos 1758 Rocket 3.7 06:34:14 10° N 06:38:42 82° E 06:43:11 10° S
GPS 2-18 Rocket1 3.1 06:35:06 11° W 06:38:43 79° N 06:42:26 10° ENE
Cosmos 1825 Rocket 3.8 06:35:36 10° NNW 06:39:48 48° W 06:44:02 10° SSW
Delta 168 4.3 06:34:34 11° WSW 06:40:10 80° NNW 06:49:10 10° ENE
Cosmos 1833 Rocket 2.8 06:35:04 10° NNW 06:40:31 54° WSW 06:45:57 10° S
Cosmos 2058 Rocket 3.6 06:36:33 10° SSW 06:40:36 37° W 06:44:38 10° NNW
Atlas Centaur 2 3.4 06:32:12 10° WSW 06:40:41 61° NNW 06:48:38 10° ENE
Okean-O 4.2 06:38:48 10° NNW 06:41:50 18° WNW 06:44:53 10° WSW
Meteor 1-21 4.3 06:37:13 10° N 06:42:49 89° E 06:48:24 10° S
Cosmos 1354 Rocket 4.2 06:41:27 10° N 06:46:41 78° ENE 06:51:56 10° SSE
Cosmos 1464 Rocket 4.1 06:41:17 10° S 06:47:24 86° E 06:53:32 10° N
Hubble Space Telescope 2.7 06:46:02 10° SW 06:47:46 12° SSW 06:49:30 10° S
Meteor 1-31 Rocket 3.4 06:45:24 10° N 06:49:06 39° WNW 06:52:46 10° SW
NOAA 6 4.1 06:44:10 10° N 06:49:12 60° WNW 06:54:14 10° SSW
USA 116 4.3 06:47:00 10° S 06:51:12 42° WSW 06:54:55 10° NNW
GPS 2-15 Rocket1 3.2 06:48:41 10° W 06:53:29 78° S 06:58:22 10° ESE
